Effective Sunday, March 17, 2024, the National Weather Service National Data Buoy Center will discontinue its Dial-A-Buoy Interactive Voice Response system. For more information, see Service Change Notice 24-06 (PDF).

Station MNMM4 - 9087088 - Menominee, MI Image indicating link to RSS feed of recent meteorological observations for station MNMM4


Conditions at MNMM4 as of
(7:00 pm CST on 03/04/2024)
0100 GMT on 03/05/2024:
     

Click on the graph icon in the table below to see a time series plot of the last five days of that observation.

5-day plot - Wind Direction Wind Direction (WDIR):NNW ( 340 deg true )
5-day plot - Wind Speed Wind Speed (WSPD): 12.0 kts
5-day plot - Wind Gust Wind Gust (GST): 15.0 kts
5-day plot - Atmospheric Pressure Atmospheric Pressure (PRES):29.92 in
5-day plot - Pressure Tendency Pressure Tendency (PTDY):+0.00 in ( Steady )
5-day plot - Air Temperature Air Temperature (ATMP): 38.7 °F
5-day plot - Dew Point Dew Point (DEWP): 38.7 °F
5-day plot - Wind Chill Wind Chill (CHILL): 30.6 °F
5-day plot - Wind Speed at 10 Meters Wind Speed at 10 meters (WSPD10M): 11.7 kts
5-day plot - Wind Speed at 20 Meters Wind Speed at 20 meters (WSPD20M): 13.6 kts
5-day plot -  Wind Speed, Wind Gust and Atmospheric Pressure Combined plot of Wind Speed, Gust, and Air Pressure
NOS Water Level Observation Network Water Level
Previous observations
TIME
(CST)
5-day plot - Wind Direction
WDIR
 
5-day plot - Wind Speed
WSPD
kts
5-day plot - Wind Gust
GST
kts
5-day plot - Wave Height
WVHT
ft
5-day plot - Dominant Wave Period
DPD
sec
5-day plot - Average Wave Period
APD
sec
5-day plot - Mean Wave Direction
MWD
 
5-day plot - Atmospheric Pressure
PRES
in
5-day plot - Pressure Tendency
PTDY
in
5-day plot - Air Temperature
ATMP
°F
5-day plot - Water Temperature
WTMP
°F
5-day plot - Dew Point
DEWP
°F
5-day plot - Salinity
SAL
psu
5-day plot - Visibility
VIS
nmi
5-day plot - Tide (above MLLW)
TIDE
ft
2024-03-04 06:54 pmNNW 12.0 15.0----29.93- 38.3- 38.3---
2024-03-04 06:48 pm-------29.91- 38.7 36.9 38.7---
2024-03-04 06:42 pm-------29.92- 38.8 36.9 38.3---
2024-03-04 06:36 pm-------29.91- 39.0 36.9 38.3---
2024-03-04 06:30 pm NW 12.0 15.9----29.93- 39.0 36.9 38.1---
2024-03-04 06:24 pmNNW 13.0 17.1----29.91- 39.0 36.9 38.5---
2024-03-04 06:18 pmNNW 15.0 20.0----29.91- 39.0 36.9 38.3---
2024-03-04 06:12 pmNNW 17.1 20.0----29.90- 39.4 36.9 38.1---
2024-03-04 06:06 pmNNW 15.9 20.0----29.91- 39.0 36.9 37.8---
2024-03-04 06:00 pm-------29.90+0.04 39.6 36.9 37.8---
2024-03-04 05:54 pm-------29.91- 39.7 36.9 38.1---
2024-03-04 05:48 pm NW 15.0 18.1----29.91- 39.9 36.9 38.3---
2024-03-04 05:42 pm NW 15.9 19.0----29.92- 39.9 36.9 38.8---
2024-03-04 05:36 pm NW 17.1 22.9----29.91- 40.3 36.9 38.7---
2024-03-04 05:30 pmNNW 17.1 31.1----29.90- 40.3 36.9 38.5---
2024-03-04 05:24 pmNNW 14.0 27.0----29.90- 40.5 36.9 38.1---
2024-03-04 05:18 pmNNW 19.0 24.1----29.88- 41.2 36.9 37.9---
2024-03-04 05:12 pmNNW 19.0 22.9----29.88- 41.4 36.9 37.8---
2024-03-04 05:06 pmNNW 18.1 20.0----29.88- 42.1 36.9 38.3---
2024-03-04 05:00 pm NW 15.9 19.0----29.90- 41.5 36.9 37.6---
2024-03-04 04:54 pmNNW 15.9 18.1----29.89- 41.5 36.9 37.4---
2024-03-04 04:48 pmNNW 15.9 18.1----29.88-- 36.9----
2024-03-04 04:42 pm N 15.0 15.9----29.88-- 36.9----
2024-03-04 04:36 pmNNW 15.9 17.1----29.88-- 36.9----
2024-03-04 04:30 pm N 15.0 19.0----29.88- 41.7 36.9 35.2---
2024-03-04 04:24 pmNNW 18.1 21.0----29.88- 42.4 36.9 34.7---
2024-03-04 04:18 pmNNW 21.0 26.0----29.87- 43.3 36.9 33.8---
2024-03-04 04:12 pm NW 20.0 24.1----29.89- 44.6 36.9 32.0---
2024-03-04 04:06 pm NW 9.9 15.0----29.89- 47.5 36.9 28.9---
2024-03-04 04:00 pm W 8.9 18.1----29.93+0.02 47.3 36.9 29.7---
2024-03-04 03:54 pmWNW 12.0 28.0----29.90- 46.9 36.9 28.6---
2024-03-04 03:48 pm W 11.1 22.9----29.90- 46.9 36.9 31.6---
2024-03-04 03:42 pmNNW 8.9 15.9----29.87- 40.8 36.9 32.2---
2024-03-04 03:36 pmNNW 11.1 12.0----29.85- 40.6 36.9 31.3---
2024-03-04 03:30 pm N 9.9 11.1----29.85- 41.5 36.9 30.6---
2024-03-04 03:24 pm NW 8.0 11.1----29.85- 42.4 36.9 29.7---
2024-03-04 03:18 pm NW 5.1 9.9----29.87- 42.8 36.9 31.3---
2024-03-04 03:12 pm NW 7.0 9.9----29.87- 41.4 36.9 31.3---
2024-03-04 03:06 pmNNW 5.1 8.0----29.87- 41.0 36.9 33.3---
2024-03-04 03:00 pm NW 5.1 8.9----29.86-0.04 39.0 36.9 32.9---
2024-03-04 02:54 pmNNW 5.1 8.0----29.87- 39.7 36.9 32.2---
2024-03-04 02:48 pm NW 2.9 4.1----29.87- 39.7 36.9 32.4---
2024-03-04 02:42 pmNNW 4.1 6.0----29.87- 38.8 36.9 32.2---
2024-03-04 02:36 pmNNE 1.9 8.9----29.86- 39.4 36.9 32.9---
2024-03-04 02:30 pm E 2.9 8.0----29.86- 39.0 36.9 33.4---
2024-03-04 02:24 pmENE 4.1 8.0----29.86- 39.2 36.9 33.1---
2024-03-04 02:18 pmENE 8.0 9.9----29.86- 39.9 36.9 32.7---
2024-03-04 02:12 pm NE 8.0 15.0----29.86- 40.8 36.9 32.4---
2024-03-04 02:06 pmNNE 7.0 12.0----29.86- 39.4 36.9 32.9---
2024-03-04 02:00 pmNNW 5.1 7.0------- 36.9----
2024-03-04 01:54 pm NW 5.1 7.0------- 36.9----
2024-03-04 01:48 pm N 4.1 6.0----29.87- 42.4 36.9 31.8---
2024-03-04 01:42 pm N 1.0 6.0----29.88- 42.1 36.9 32.7---
2024-03-04 01:36 pmNNW 2.9 9.9----29.88- 42.6 36.7 32.7---
2024-03-04 01:30 pm NE 5.1 8.0----29.88- 42.1 36.9 33.3---
2024-03-04 01:24 pmENE 8.0 8.0----29.88- 40.8 36.9 33.8---
2024-03-04 01:18 pm E 6.0 6.0----29.89- 41.0 36.9 33.8---
2024-03-04 01:12 pm E 2.9 5.1----29.89- 43.0 36.7 32.5---
2024-03-04 01:06 pm E 4.1 6.0----29.90- 44.2 36.7 32.0---
2024-03-04 01:00 pm E 1.9 8.0----29.91-0.03 45.0 36.7 31.8---
2024-03-04 12:54 pm NE 1.0 4.1----29.91- 45.5 36.7 33.3---
2024-03-04 12:48 pmWSW 4.1 17.1----29.92- 45.0 36.5 33.6---
2024-03-04 12:42 pmESE 14.0 24.1----29.91- 44.1 36.5 32.9---
2024-03-04 12:36 pmSSW 1.9 2.9----29.92- 42.4 36.7 32.4---
2024-03-04 12:30 pm E 1.9 5.1----29.90- 41.5 36.7 32.9---
2024-03-04 12:24 pm E 2.9 5.1----29.90- 41.0 36.7 32.2---
2024-03-04 12:18 pmESE 5.1 6.0----29.91- 40.6 36.7 32.9---
2024-03-04 12:12 pmESE 5.1 7.0----29.91- 40.8 36.7 32.7---
2024-03-04 12:06 pm E 6.0 7.0----29.89- 41.5 36.7 32.0---
2024-03-04 12:00 pm E 7.0 11.1----29.90-0.04 42.6 36.5 32.9---
2024-03-04 11:54 amESE 6.0 8.0----29.91- 40.8 36.7 33.8---
2024-03-04 11:48 amESE 7.0 12.0----29.91- 39.2 36.5 34.2---
2024-03-04 11:42 amESE 8.9 13.0----29.91- 39.6 36.5 34.2---
2024-03-04 11:36 amESE 9.9 13.0----29.91- 40.1 36.7 33.4---
2024-03-04 11:30 amESE 7.0 12.0----29.91- 41.2 36.5 34.2---
2024-03-04 11:24 amESE 6.0 11.1----29.92- 41.9 36.7 34.3---
2024-03-04 11:18 amESE 6.0 8.9----29.92- 42.4 36.7 32.9---
2024-03-04 11:12 amESE 5.1 5.1----29.92- 42.8 36.7 32.7---
2024-03-04 11:06 am SE 2.9 8.0----29.92- 44.2 36.7 33.4---
2024-03-04 11:00 amESE 4.1 11.1----29.92-0.05 41.4 36.5 34.3---
2024-03-04 10:54 am SE 7.0 12.0----29.92- 40.1 36.5 33.4---
2024-03-04 10:48 amESE 8.9 12.0----29.92- 39.7 36.5 33.6---
2024-03-04 10:42 amESE 8.9 14.0----29.92- 39.7 36.5 33.8---
2024-03-04 10:36 amESE 8.0 12.0----29.93- 39.0 36.5 33.6---
2024-03-04 10:30 amSSE 7.0 11.1----29.93- 38.3 36.5 34.5---
2024-03-04 10:24 amSSE 6.0 6.0----29.93- 38.1 36.7 35.1---
2024-03-04 10:18 amESE 6.0 7.0----29.93- 38.1 36.7 34.9---
2024-03-04 10:12 am E 5.1 6.0----29.93- 38.1 36.7 34.9---
2024-03-04 10:06 am E 5.1 6.0----29.93- 37.8 36.5 34.7---
2024-03-04 10:00 am E 5.1 5.1----29.93+0.00 37.6 36.5 34.2---
2024-03-04 09:54 am E 5.1 9.9----29.94- 36.9 36.5 34.3---
2024-03-04 09:48 am E 4.1 8.9----29.94- 36.7 36.3 32.9---
2024-03-04 09:42 am SE 4.1 7.0----29.95- 38.3 36.3 33.8---
2024-03-04 09:36 am S 2.9 7.0----29.95- 40.5 36.3 35.1---
2024-03-04 09:30 amESE 2.9 6.0----29.94- 38.1 36.3 34.7---
2024-03-04 09:24 amENE 2.9 5.1----29.95- 37.8 36.3 34.7---
2024-03-04 09:18 amENE 2.9 5.1----29.94- 38.5 36.3 34.5---
2024-03-04 09:12 am E 2.9 4.1----29.94- 38.3 36.3 34.0---
2024-03-04 09:06 am E 2.9 5.1----29.94- 37.9 36.3 34.2---
2024-03-04 09:00 am E 2.9 7.0----29.94+0.05 37.9 36.3 34.0---
2024-03-04 08:54 am E 5.1 11.1----29.95- 37.8 36.3 34.0---
2024-03-04 08:48 amESE 7.0 7.0----29.95- 37.4 36.3 32.5---
2024-03-04 08:42 amESE 4.1 4.1----29.96- 39.9 36.3 33.3---
2024-03-04 08:36 amESE 4.1 4.1----29.96- 40.5 36.3 33.4---
2024-03-04 08:30 am S 2.9 8.0----29.96- 42.3 36.3 34.7---
2024-03-04 08:24 am SE 1.9 8.0----29.97- 40.8 36.3 34.0---
2024-03-04 08:18 am SW 2.9 9.9----29.97- 41.4 36.3 34.5---
2024-03-04 08:12 amSSE 5.1 8.9----29.97- 40.3 36.3 34.3---
2024-03-04 08:06 am SE 5.1 8.9----29.97- 39.6 36.3 33.1---
2024-03-04 08:00 am S 6.0 8.9----29.97+0.09 42.4 36.3 32.7---
2024-03-04 07:54 am SE 2.9 9.9----29.96- 43.5 36.3 33.1---
2024-03-04 07:48 amSSW 2.9 5.1----29.97- 43.0 36.3 33.6---
2024-03-04 07:42 amWSW 1.9 8.9----29.96- 43.2 36.3 33.8---
2024-03-04 07:36 am W 5.1 8.9----29.95- 42.8 36.3 33.3---
2024-03-04 07:30 am W 6.0 13.0----29.94- 42.6 36.3 33.4---
2024-03-04 07:24 am W 8.0 12.0----29.93- 42.4 36.3 33.1---
2024-03-04 07:18 am W 8.0 15.0----29.93- 42.6 36.3 33.1---
2024-03-04 07:12 am W 8.9 13.0----29.93- 42.4 36.3 32.7---
2024-03-04 07:06 amWSW 5.1 8.0----29.93- 42.4 36.3 33.1---
2024-03-04 07:00 amWSW 5.1 7.0----29.93+0.08 42.3 36.3 33.4---
2024-03-04 06:54 amWSW 7.0 8.9----29.93- 42.3 36.3 34.0---
2024-03-04 06:48 amWSW 7.0 11.1----29.92- 41.5 36.3 34.2---
2024-03-04 06:42 am W 8.0 13.0----29.92- 42.3 36.3 33.6---
2024-03-04 06:36 am W 9.9 15.0----29.91- 41.7 36.3 34.3---
2024-03-04 06:30 am W 9.9 15.9----29.90- 41.5 36.3 35.2---
2024-03-04 06:24 am W 8.0 12.0----29.90- 41.0 36.3 36.0---
2024-03-04 06:18 am W 7.0 9.9----29.91- 41.2 36.3 36.5---
2024-03-04 06:12 am W 8.0 11.1----29.90- 41.7 36.3 36.7---
2024-03-04 06:06 am W 7.0 8.0----29.90- 41.4 36.3 36.7---
2024-03-04 06:00 am W 5.1 7.0----29.89+0.06 41.7 36.3 36.9---
2024-03-04 05:54 amWSW 6.0 8.9----29.89- 41.9 36.3 37.2---
2024-03-04 05:48 amWSW 8.0 8.9----29.90- 42.1 36.3 37.2---
2024-03-04 05:42 amWSW 7.0 9.9----29.90- 42.1 36.3 37.2---
2024-03-04 05:36 amWSW 8.0 9.9----29.91- 42.4 36.3 37.2---
2024-03-04 05:30 amWSW 7.0 11.1----29.90- 42.3 36.3 37.0---
2024-03-04 05:24 amWSW 8.9 11.1----29.90- 42.8 36.3 37.4---
2024-03-04 05:18 amWSW 8.0 8.9----29.90- 42.4 36.3 37.4---
2024-03-04 05:12 amWSW 8.0 8.9----29.89- 42.3 36.3 37.6---
2024-03-04 05:06 amWSW 6.0 8.0----29.89- 42.1 36.3 37.6---
2024-03-04 05:00 am SW 6.0 7.0----29.88+0.06 42.3 36.3 37.8---
2024-03-04 04:54 am SW 6.0 6.0----29.87- 41.4 36.3 36.9---
2024-03-04 04:48 am SW 5.1 6.0----29.87- 43.5 36.3 37.8---
2024-03-04 04:42 amWSW 6.0 6.0----29.87- 43.9 36.3 38.7---
2024-03-04 04:36 amSSW 7.0 12.0----29.87- 41.0 36.3 37.6---
2024-03-04 04:30 am S 7.0 11.1----29.87- 40.5 36.3 37.6---
2024-03-04 04:24 amSSW 4.1 5.1----29.86- 41.4 36.3 37.6---
2024-03-04 04:18 am S 1.9 2.9----29.85- 41.4 36.3 37.8---
2024-03-04 04:12 am S 1.9 9.9----29.85- 41.9 36.3 38.5---
2024-03-04 04:06 amSSW 7.0 11.1----29.85- 42.6 36.3 38.8---
2024-03-04 04:00 amSSW 4.1 8.0----29.85+0.08 43.2 36.3 39.2---
2024-03-04 03:54 am S 2.9 7.0----29.85- 42.4 36.3 38.8---
2024-03-04 03:48 am S 4.1 9.9----29.85- 42.4 36.3 39.2---
2024-03-04 03:42 amSSE 5.1 7.0----29.85- 43.2 36.3 38.5---
2024-03-04 03:36 amSSE 5.1 5.1----29.83- 45.0 36.3 39.7---
2024-03-04 03:30 am SW 1.0 4.1----29.83- 46.2 36.1 41.0---
2024-03-04 03:24 am W 2.9 5.1----29.83- 46.8 36.1 41.0---
2024-03-04 03:18 am W 4.1 6.0----29.83- 46.8 36.1 41.0---
2024-03-04 03:12 am W 5.1 8.9----29.83- 47.1 36.1 41.0---
2024-03-04 03:06 am W 5.1 7.0----29.83- 47.3 36.1 41.0---
2024-03-04 03:00 am W 6.0 15.9----29.83+0.11 47.7 36.1 41.2---
2024-03-04 02:54 am W 8.9 17.1----29.84- 48.0 36.1 41.0---
2024-03-04 02:48 am W 11.1 15.0----29.84- 48.2 36.1 41.0---
2024-03-04 02:42 am W 11.1 17.1----29.84- 48.2 36.1 41.0---
2024-03-04 02:36 am W 11.1 17.1----29.83- 48.7 36.1 41.5---
2024-03-04 02:30 am W 8.9 15.9----29.83- 49.1 36.1 41.7---
2024-03-04 02:24 am W 11.1 15.9----29.83- 49.1 36.1 41.9---
2024-03-04 02:18 am W 11.1 15.9----29.83- 49.5 36.1 42.3---
2024-03-04 02:12 am W 8.0 14.0----29.83- 49.5 36.1 42.8---
2024-03-04 02:06 amWSW 12.0 17.1----29.83- 50.2 36.1 43.2---
2024-03-04 02:00 amWSW 11.1 17.1----29.82+0.13 50.4 36.1 43.7---
2024-03-04 01:54 amWSW 12.0 15.0----29.82- 50.5 36.1 44.2---
2024-03-04 01:48 amWSW 12.0 17.1----29.81- 50.7 36.1 44.6---
2024-03-04 01:42 amWSW 9.9 14.0----29.81- 50.7 36.1 45.0---
2024-03-04 01:36 amWSW 8.9 13.0----29.80- 50.7 36.1 45.1---
2024-03-04 01:30 amWSW 9.9 12.0----29.80- 50.9 36.1 45.0---
2024-03-04 01:24 amWSW 9.9 13.0----29.79- 50.9 36.1 45.0---
2024-03-04 01:18 amWSW 9.9 14.0----29.79- 51.1 36.1 45.0---
2024-03-04 01:12 amWSW 8.9 13.0----29.78- 50.5 36.1 44.2---
2024-03-04 01:06 amWSW 11.1 14.0----29.78- 51.1 36.1 44.4---
2024-03-04 01:00 am SW 12.0 14.0----29.77+0.15 51.3 36.1 44.2---
2024-03-04 12:54 am SW 11.1 15.9----29.77- 51.3 36.1 44.1---
2024-03-04 12:48 am SW 11.1 17.1----29.76- 51.1 36.1 43.5---
2024-03-04 12:42 amSSW 11.1 17.1----29.76- 50.7 36.1 43.2---
2024-03-04 12:36 amSSW 11.1 18.1----29.75- 50.2 36.1 43.2---
2024-03-04 12:30 am S 8.9 15.9----29.75- 48.2 36.1 42.1---
2024-03-04 12:24 am S 8.9 15.9----29.75- 47.1 36.1 41.2---
2024-03-04 12:18 am S 9.9 17.1----29.74- 46.4 36.1 41.2---
2024-03-04 12:12 am S 15.0 20.0----29.74- 46.9 36.1 41.2---
2024-03-04 12:06 am S 15.9 22.9----29.73- 47.7 36.1 41.9---
2024-03-04 12:00 amSSE 15.9 19.0----29.72+0.11 45.7 36.1 40.5---
2024-03-03 11:54 pmSSE 11.1 18.1----29.72- 46.4 36.1 41.0---
2024-03-03 11:48 pmSSE 9.9 12.0----29.72- 46.0 36.1 40.5---
2024-03-03 11:42 pm S 8.0 18.1----29.71- 48.4 36.1 42.3---
2024-03-03 11:36 pm S 11.1 17.1----29.72- 48.6 36.1 42.3---
2024-03-03 11:30 pm S 11.1 19.0----29.71- 47.5 36.1 41.5---
2024-03-03 11:24 pm S 14.0 19.0----29.71- 47.3 36.0 41.4---
2024-03-03 11:18 pm S 14.0 21.0----29.70- 48.2 36.0 41.5---
2024-03-03 11:12 pm S 14.0 21.0----29.70- 49.1 36.0 42.1---
2024-03-03 11:06 pm S 15.9 22.0----29.69- 50.0 36.0 42.6---
2024-03-03 11:00 pm S 17.1 22.9----29.69+0.06 50.9 36.0 43.0---
2024-03-03 10:54 pm S 14.0 22.0----29.69- 51.4 36.0 43.7---
2024-03-03 10:48 pm S 15.9 21.0----29.70- 52.3 36.0 44.6---
2024-03-03 10:42 pmSSW 12.0 21.0----29.70- 51.8 36.0 44.8---
2024-03-03 10:36 pmSSW 18.1 26.0----29.70- 52.5 36.0 44.1---
2024-03-03 10:30 pmSSW 19.0 28.9----29.69- 53.1 36.0 43.9---
2024-03-03 10:24 pm SW 12.0 31.1----29.68- 52.5 36.0 44.4---
2024-03-03 10:18 pm S 17.1 22.0----29.67- 46.9 36.0 41.2---
2024-03-03 10:12 pm S 18.1 25.1----29.63- 46.6 36.0 41.0---
2024-03-03 10:06 pm S 19.0 25.1----29.62- 46.6 36.0 40.8---
2024-03-03 10:00 pm S 19.0 25.1----29.62-0.04 46.9 36.0 41.0---
2024-03-03 09:54 pmSSE 22.0 29.9----29.62- 47.3 36.0 41.0---
2024-03-03 09:48 pmSSE 22.0 32.1----29.62- 47.3 36.0 40.8---
2024-03-03 09:42 pm S 22.9 29.9----29.62- 47.5 36.0 40.8---
2024-03-03 09:36 pmSSE 20.0 29.9----29.61- 47.7 36.0 40.8---
2024-03-03 09:30 pmSSE 20.0 26.0----29.62- 47.8 36.0 40.8---
2024-03-03 09:24 pmSSE 18.1 22.0----29.62- 47.5 36.0 40.6---
2024-03-03 09:18 pm S 19.0 26.0----29.62- 47.3 36.0 40.5---
2024-03-03 09:12 pmSSE 20.0 28.0----29.62- 47.7 36.0 40.6---
2024-03-03 09:06 pmSSE 15.9 22.9----29.62- 46.6 36.0 39.9---
2024-03-03 09:00 pmSSE 15.9 21.0----29.62-0.04 46.4 36.0 39.9---
2024-03-03 08:54 pmSSE 17.1 24.1----29.62- 46.4 36.0 39.9---
2024-03-03 08:48 pm S 17.1 24.1----29.62- 46.4 36.0----
2024-03-03 08:42 pmSSE 15.9 22.0----29.61- 46.6 36.0----
2024-03-03 08:36 pmSSE 9.9 15.0----29.62- 45.5 36.0----
2024-03-03 08:30 pm S 6.0 12.0----29.63- 44.6 36.0 39.0---
2024-03-03 08:24 pm S 8.0 17.1----29.63- 44.8 36.0 38.8---
2024-03-03 08:18 pm S 8.9 15.0----29.64- 45.1 36.0 38.7---
2024-03-03 08:12 pm S 9.9 15.0----29.64- 45.9 36.0 38.8---
2024-03-03 08:06 pm S 7.0 13.0----29.64- 46.2 36.0 38.8---
2024-03-03 08:00 pm S 8.0 12.0----29.64+0.02 46.9 36.0 39.2---
2024-03-03 07:54 pmSSE 8.9 13.0----29.64- 47.3 36.0 39.0---
2024-03-03 07:48 pmSSE 8.0 11.1----29.65- 47.5 36.0 39.0---
2024-03-03 07:42 pmSSE 8.0 9.9----29.65- 47.8 36.0 39.0---
2024-03-03 07:36 pmSSE 8.0 11.1----29.66- 48.2 36.0 39.0---
2024-03-03 07:30 pm S 8.9 12.0----29.66- 48.7 36.0 39.2---
2024-03-03 07:24 pmSSE 8.9 12.0----29.66- 48.2 36.0 39.2---
2024-03-03 07:18 pmSSE 11.1 15.9----29.66- 48.6 36.0 39.2---
2024-03-03 07:12 pmSSE 8.9 12.0----29.67- 48.6 36.0 39.4---
2024-03-03 07:06 pmSSE 8.9 14.0----29.67- 48.2 36.0 39.2---
2024-03-03 07:00 pm-------29.67+0.01 48.9 36.0 39.7---
2024-03-03 06:54 pm-------29.67- 48.6 36.0 39.6---